Location: Arthez
(43.0833°N, 0.2500°W)
Time: 22:19:24
(UTC+00:00)

deb Kosmos-970 - Pass Details

Date: 18 August 2022
Orbit: 900 x 1112 km, 65.8° (Epoch: 28 September)

Event Time Altitude Azimuth Distance (km) Brightness Sun altitude
Rises 00:04:14 0° 328° (NNW) 3,942 ? -33.8°
Reaches altitude 10° 00:06:58 10° 330° (NNW) 2,972 ? -33.7°
Enters shadow 00:13:37 70° 27° (NNE) 1,145 ? -33.7°
